www.pogodaiklimat.ru

Погода и климат >> Архив погоды >> Россия >> Чувашия >> Порецкое


АРХИВ ПОГОДЫ в Порецком

Время (UTC), дата Ветер
(напр.,м/с)
 
Видим.   Явления Облачность Т
(С)
Тd
(С)
f
(%)
Тe
(С)
Тes
(С)
Комфортность P
(гПа)
Po
(гПа)
Тmin
(С)
Tmax
(С)
R
(мм)
R24
(мм)
S
(см)
15 13.09 ЮЗ 4-5
{12}
10 км 9/0
[Ac und Ci fib]
+22.2 +4.5 31 +22 +22 комфорт 1018.9 1003.0 +26.7
18 13.09 ЮЗ 5-6
{6}
10 км 3/0
[Ci fib]
+17.1 +6.6 50 +16 +16 1018.6 1002.5
21 13.09 Ю 6-7
{7}
10 км 4/0
[Ci fib]
+16.3 +5.5 49 +15 +15 1017.0 1000.9
00 14.09 ЮЗ 5-7
{7}
10 км 6/0
[Ac und Ci fib]
+15.1 +4.6 49 +14 +14 1015.4 999.2
03 14.09 Ю 6-8
{8}
10 км 9/0
[Ac und Ci fib]
+15.7 +3.8 45 +14 +14 1013.4 997.2 +14.9
06 14.09 Ю 9-13
{13}
10 км 9/0
[As trans Cs]
+20.8 +3.8 33 +21 +21 комфорт 1011.3 995.5
09 14.09 Ю 8-12
{14}
10 км 9/9 600 м
[Sc]
+23.4 +4.8 30 +23 +24 комфорт 1010.2 994.5
12 14.09 ЮЗ 7-10
{14}
10 км 10/10 600 м
[Sc]
+20.5 +7.5 43 +21 +21 комфорт 1010.8 995.0
15 14.09 З 4-6
{12}
4000 м слаб. дождь 10/10 300 м
[Frnb Ns]
+13.3 +11.2 87 +12 +12 1012.2 996.0 +23.7 0.6
18 14.09 СЗ 3-4
{7}
4000 м слаб. дождь 10/10 300 м
[Frnb Ns]
+12.6 +10.9 89 +11 +11 1012.9 996.6
21 14.09 СЗ 1-2
{4}
10 км {дождь} 9/9 600 м
[Sc]
+11.7 +8.1 79 +12 +12 1013.2 996.9
00 15.09 ЮЗ 2-3
{4}
10 км 9/9 600 м
[Sc]
+9.9 +7.5 85 +8 +8 1013.1 996.7
03 15.09 С 2-2
{4}
10 км 9/0
[Ac trans Ci fib]
+6.2 +4.5 89 +4 +4 1013.3 996.7 +6.2 1
06 15.09 СЗ 3-4
{6}
10 км 4/0
[Ac und]
+11.3 +6.8 74 +10 +12 1013.7 997.3 +6.2
09 15.09 З 5-8
{8}
10 км 8/8 600 м
[Cu hum]
+14.3 +3.6 49 +13 +14 1013.0 996.8
12 15.09 ЮЗ 7-10
{18}
10 км 9/8 600 м
[Cu hum Ac und Ci fib]
+13.0 +4.0 54 +11 +11 1012.3 996.1
15 15.09 ЮЗ 3-5
{10}
10 км 8/0
[Ac und Ci fib]
+11.4 +3.4 58 +10 +10 1012.1 995.8 +16.5
18 15.09 ЮЗ 4-5
{6}
10 км ясно +6.8 +3.7 81 +3 +3 1011.9 995.3
21 15.09 Ю 4-5
{6}
10 км 9/0
[Ci fib]
+6.7 +3.9 82 +3 +3 1010.8 994.2
00 16.09 Ю 4-6
{8}
10 км 10/10 600 м
[Sc]
+8.0 +3.7 74 +5 +5 1008.7 992.3
03 16.09 Ю 6-8
{9}
4000 м слаб. дождь 10/10 300 м
[Frnb Ns]
+7.8 +4.8 81 +4 +4 1005.3 988.8 +5.9 0.0
06 16.09 ЮЗ 8-11
{12}
4000 м слаб. дождь 10/10 300 м
[Frnb Ns]
+8.8 +6.4 85 +4 +4 1003.0 986.7
09 16.09 ЮЗ 8-12
{12}
4000 м слаб. дождь 10/10 300 м
[Frnb Ns]
+9.9 +7.4 84 +6 +6 1000.7 984.5
12 16.09 ЮЗ 7-11
{12}
4000 м слаб. дождь 10/10 300 м
[Frnb Ns]
+10.0 +8.1 88 +6 +6 999.2 983.0
15 16.09 ЮЗ 7-10
{13}
10 км в посл. час дождь 8/8 600 м
[Sc]
+10.5 +8.3 86 +7 +7 998.8 982.6 +10.7 1
18 16.09 ЮЗ 4-6
{10}
10 км {дождь} 3/0
[Ci fib]
+9.2 +7.4 88 +6 +6 999.1 982.9
21 16.09 ЮЗ 6-7
{8}
10 км ясно +7.7 +5.9 88 +3 +3 999.1 982.8
00 17.09 ЮЗ 6-7
{8}
10 км 4/0
[Ci fib]
+7.5 +5.7 88 +3 +3 998.6 982.3
03 17.09 ЮЗ 6-9
{10}
10 км 4/0
[Ac und]
+7.3 +5.5 88 +3 +3 998.5 982.2 +6.9
06 17.09 ЮЗ 5-8
{10}
10 км 8/5 600 м
[Cu hum Ac und Ci fib]
+10.5 +7.2 80 +8 +8 998.4 982.2
09 17.09 ЮЗ 8-11
{11}
10 км 9/8 600 м
[Cu hum Ac und]
+14.9 +6.3 56 +13 +13 997.6 981.7
12 17.09 ЮЗ 9-14
{14}
10 км 10/10 600 м
[Sc]
+12.9 +6.5 65 +10 +10 998.1 982.1
15 17.09 З 8-15
{15}
4000 м слаб. дождь 10/10 300 м
[Frnb Ns]
+9.7 +6.1 78 +6 +6 998.8 982.6 +16.7 0.5
18 17.09 ЮЗ 4-4
{16}
10 км {дождь} 3/0
[Ac und]
+5.6 +3.6 87 +2 +2 999.2 982.8
21 17.09 Ю 5-6
{6}
10 км ясно +5.6 +3.6 87 +1 +1 999.3 982.8
00 18.09 Ю 4-6
{6}
10 км 6/0
[Ac und]
+4.1 +2.6 90 -0 -0 999.8 983.2
03 18.09 Ю 4-5
{7}
10 км 9/0
[Ac und]
+4.9 +3.2 89 +1 +1 1000.6 984.1 +4.1 0.0
06 18.09 ЮЗ 6-9
{9}
10 км 9/9 600 м
[Sc]
+7.6 +5.0 84 +3 +3 1000.9 984.6
09 18.09 ЮЗ 6-8
{10}
10 км 10/10 600 м
[Sc]
+12.3 +5.1 61 +10 +10 1000.7 984.6
12 18.09 ЮЗ 5-7
{14}
4000 м слаб. дождь 10/10 300 м
[Frnb Ns]
+10.8 +6.0 72 +8 +8 1000.4 984.3
15 18.09 Ю 4-4
{7}
10 км {дождь} 9/0
[Ci fib]
+9.5 +4.6 71 +7 +7 999.5 983.3 +12.9 0.0
18 18.09 В 1-1
{5}
10 км {дождь} 10/10 600 м
[Sc]
+6.2 +3.6 83 +5 +5 998.5 982.0
21 18.09 С 1-2
{4}
10 км 9/9 600 м
[Sc]
+5.2 +3.8 91 +4 +4 996.0 979.6
00 19.09 С 1-2
{2}
10 км 9/9 600 м
[Sc]
+4.9 +3.5 91 +4 +4 994.7 978.3
03 19.09 СЗ 2-3
{4}
10 км 9/9 600 м
[Sc]
+6.0 +3.9 86 +4 +4 995.6 979.2 +4.9
06 19.09 СЗ 5-9
{9}
10 км 8/8 600 м
[Sc]
+9.6 +5.1 74 +6 +7 998.5 982.3
09 19.09 З 7-11
{11}
10 км 9/9 600 м
[Sc]
+11.6 +3.3 57 +9 +9 1001.7 985.6
12 19.09 З 5-8
{15}
10 км 8/8 600 м
[Sc Ac und Ci fib]
+11.5 +4.9 64 +9 +10 1004.8 988.6
15 19.09 З 5-9
{10}
10 км 9/9 600 м
[Sc Ac und Ci fib]
+10.0 +3.8 65 +7 +7 1007.3 991.0 +13.0
18 19.09 З 3-5
{9}
10 км 10/10 600 м
[Sc]
+7.4 +4.1 80 +5 +5 1009.6 993.1
21 19.09 З 2-5
{5}
10 км 10/10 600 м
[Sc]
+6.5 +4.2 85 +4 +4 1010.9 994.3
00 20.09 ЮЗ 3-3
{5}
10 км 10/10 600 м
[Sc]
+4.0 +2.7 91 0 0 1012.1 995.4
03 20.09 Ю 2-2
{4}
10 км 10/10 600 м
[Sc]
+4.9 +3.6 91 +2 +2 1012.7 995.9 +3.6
06 20.09 ЮВ 2-3
{3}
10 км 10/10 600 м
[Sc]
+7.0 +4.8 86 +5 +5 1013.3 996.7
09 20.09 З 2-3
{5}
4000 м слаб. дождь 10/10 300 м
[Frnb Ns]
+7.9 +5.5 85 +6 +6 1013.0 996.5

 

Местоположение метеостанции Порецкое (Чувашия, Россия): широта 55.18 долгота 46.33 высота над уровнем моря 136 м.

В архиве по умолчанию представлена погода в Порецком за последнюю неделю. Архивные данные за месяц целиком и за предыдущие месяцы, начиная с января 2011 года, Вы можете получить, выбрав интересующий диапазон дат из раскрывающегося списка и нажав кнопку "Ввод!".


*Определитесь, кто Вы:
робот инопланетянин человек

Внимание! Время в таблицах - всемирное. Для получения местного времени необходимо прибавить поправку, которая равна 3 ч.

Смотрите также архив погоды в соседних городах и на ближайших метеорологических станциях:

Погода в Алатыре (Чувашия, Россия) (43 км)
Погода в Сергаче (Нижегородская область, Россия) (65 км)
Погода в Большом Болдино (Нижегородская область, Россия) (67 км)
Погода в Сурском (Ульяновская область, Россия) (81 км)
Погода в Канаше (Чувашия, Россия) (81 км)
Погода в Батырево (Чувашия, Россия) (82 км)
Погода в Дрожжаном (Татарстан, Россия) (94 км)
Погода в Больших Березниках (Мордовия, Россия) (115 км)
Погода в Лукоянове (Нижегородская область, Россия) (118 км)
Погода в Чебоксарах (Чувашия, Россия) (118 км)

Пояснения к столбцам:

Ветер - указаны скорость ветра в м/с - средняя за 10 мин, порывы в срок и между сроками (в фигурных скобках) и направление, откуда дует ветер: С - северный, СВ - северо-восточный, В - восточный, ЮВ - юго-восточный, Ю - южный, ЮЗ - юго-западный, З - западный, СЗ - северо-западный.
Видимость - горизонтальная дальность видимости в метрах или километрах. При видимости от 1 до 10 км при отсутствии осадков обычно наблюдается дымка, при ухудшении видимости до 1 км и менее - туман. В сухую погоду видимость может ухудшаться дымом, пылью или мглою.
Явления - указаны атмосферные явления, наблюдавшиеся в срок или в последний час перед сроком; фигурными скобками обозначены явления, наблюдавшиеся между сроками (за 1-3 часа до срока); квадратными скобками обозначены град или гололедные отложения с указанием их диаметра в мм.
Облачность - указаны через наклонную черту общая и нижняя облачность в баллах и высота нижней границы облаков в метрах; квадратными скобками обозначены формы облаков: Ci - перистые, Cs - перисто-слоистые, Cc - перисто-кучевые, Ac - высококучевые, As - высокослоистые, Sc - слоисто-кучевые, Ns - слоисто-дождевые, Cu - кучевые, Cb - кучево-дождевые. Подробнее классификацию облаков см. в Атласе облаков (PDF).
T - Температура воздуха - температура, измеренная на высоте 2 м над землей.
Td - Температура точки росы - температура, при понижении до которой содержащийся в воздухе водяной пар достигнет насыщения.
f - Относительная влажность воздуха - влажноcть воздуха, измеренная на высоте 2 м над землей.
Te - Эффективная температура - температура, которую ощущает одетый по сезону человек в тени. Характеристика душности погоды. При расчете учитывается влияние влажности воздуха и скорости ветра на теплоощущения человека.
Tes - Эффективная температура на солнце - температура, которую ощущает человек, с поправкой на солнечный нагрев. Характеристика знойности погоды. Зависит от высоты солнца над горизонтом, облачности и скорости ветра. Ночью, в пасмурную погоду, а также при ветре 12 м/с и более поправка равна нулю.
P - Атмосферное давление - приведенное к уровню моря атмосферное давление.
Po - Атмосферное давление - измеренное на уровне метеостанции атмосферное давление.
Tmin - Минимальная температура - минимум температуры воздуха на высоте 2 м над землей.
Tmax - Максимальная температура - максимум температуры воздуха на высоте 2 м над землей.
R - Количество осадков - Количество выпавших осадков за период времени, мм. При наведении курсора мыши на число - период времени, за который выпало указанное количество осадков.
R24 - Количество осадков - Количество выпавших осадков за 24 часа, мм.
S - Снежный покров - Высота снежного покрова, см. При наведении курсора мыши на число - состояние снежного покрова и степень покрытия местности в баллах.